Orbital Elements at Epoch 2459000.5 (2020-May-31.0) TDB
Reference: JPL 12 (heliocentric ecliptic J2000)
Element | Value | Uncertainty (1-sigma) | Units |
e | .06876873185634083 | 5.6223e-08 | |
a | 2.646431120761675 | 2.4337e-08 | au |
q | 2.46443940864174 | 1.4252e-07 | au |
i | 11.80320879595304 | 5.5905e-06 | deg |
node | 36.30697942629912 | 2.7673e-05 | deg |
peri | 98.17571293072433 | 4.8419e-05 | deg |
M | 179.0680104182886 | 4.059e-05 | deg |
tp | 2458218.323386198422 (2018-Apr-09.82338620) | 0.00017553 | TDB |
period | 1572.495167120086 4.31 | 2.1691e-05 5.939e-08 | d yr |
n | .2289355207744865 | 3.158e-09 | deg/d |
Q | 2.82842283288161 | 2.6011e-08 | au |
|
| | Orbit Determination Parameters
Additional Information
|